NK7E Weather Reports


Display with metric or nautical units.
time (UTC)temp
F
wind
direction
speed
MPH
gust
MPH
rain 1hr
in
rain 24hr
in
rain mn
in
humidity
%
barometer
mb
20260509212517 97 270 3.0 8.0 0.00 0.00 0.00 11 1010.8
20260509211517 97 248 6.0 12.0 0.00 0.00 0.00 11 1011.0
20260509210517 97 270 5.0 13.0 0.00 0.00 0.00 12 1011.2
20260509205517 96 248 5.0 11.0 0.00 0.00 0.00 12 1011.3
20260509204517 96 270 7.0 14.0 0.00 0.00 0.00 12 1011.5
20260509203516 95 293 8.0 16.0 0.00 0.00 0.00 12 1011.7
20260509202517 96 270 7.0 17.0 0.00 0.00 0.00 12 1011.6
20260509201517 95 248 7.0 15.0 0.00 0.00 0.00 12 1011.8
20260509200516 95 248 6.0 12.0 0.00 0.00 0.00 12 1012.0
20260509195517 94 293 8.0 17.0 0.00 0.00 0.00 13 1012.2
20260509194517 94 270 7.0 14.0 0.00 0.00 0.00 13 1012.3
20260509193517 93 270 12.0 22.0 0.00 0.00 0.00 13 1012.2
20260509192517 94 270 9.0 16.0 0.00 0.00 0.00 13 1012.4
20260509191517 94 293 8.0 18.0 0.00 0.00 0.00 14 1012.6
20260509190517 94 270 6.0 13.0 0.00 0.00 0.00 14 1012.5
20260509185517 93 270 8.0 14.0 0.00 0.00 0.00 14 1012.7
20260509184517 93 270 7.0 15.0 0.00 0.00 0.00 14 1012.7
20260509183517 93 270 7.0 14.0 0.00 0.00 0.00 15 1013.0
20260509182517 93 225 5.0 11.0 0.00 0.00 0.00 14 1013.1
20260509181516 92 225 4.0 7.0 0.00 0.00 0.00 15 1013.3
20260509180516 92 203 6.0 12.0 0.00 0.00 0.00 15 1013.5
20260509175517 91 225 3.0 9.0 0.00 0.00 0.00 16 1013.6
20260509174517 90 203 3.0 7.0 0.00 0.00 0.00 17 1013.8
20260509173517 90 180 3.0 9.0 0.00 0.00 0.00 17 1013.8
20260509172517 89 158 3.0 7.0 0.00 0.00 0.00 18 1013.9
20260509171516 89 203 2.0 5.0 0.00 0.00 0.00 18 1013.9
20260509170516 88 270 2.0 8.0 0.00 0.00 0.00 19 1013.9
20260509165516 89 158 1.0 4.0 0.00 0.00 0.00 19 1013.9
20260509164516 87 90 1.0 3.0 0.00 0.00 0.00 20 1014.0
20260509163516 86 270 2.0 6.0 0.00 0.00 0.00 20 1014.0
20260509162516 86 45 2.0 3.0 0.00 0.00 0.00 20 1014.0
20260509161517 85 203 2.0 5.0 0.00 0.00 0.00 21 1014.0
20260509160516 84 180 1.0 5.0 0.00 0.00 0.00 22 1014.0
20260509155516 83 180 2.0 4.0 0.00 0.00 0.00 22 1014.0
20260509154516 82 203 1.0 3.0 0.00 0.00 0.00 23 1014.0
20260509153517 82 180 1.0 2.0 0.00 0.00 0.00 24 1014.0
20260509152517 82 180 2.0 5.0 0.00 0.00 0.00 25 1013.9
20260509151516 81 0.0 3.0 0.00 0.00 0.00 27 1013.9
20260509150516 80 0.0 0.0 0.00 0.00 0.00 27 1013.9
20260509145516 78 0.0 0.0 0.00 0.00 0.00 30 1013.9
20260509144516 77 0.0 0.0 0.00 0.00 0.00 30 1014.0
20260509143516 76 0.0 0.0 0.00 0.00 0.00 30 1013.9
20260509142516 75 0.0 0.0 0.00 0.00 0.00 32 1013.8
20260509141516 74 0.0 0.0 0.00 0.00 0.00 34 1013.7
20260509140516 73 0.0 0.0 0.00 0.00 0.00 35 1013.7
20260509135516 73 0.0 1.0 0.00 0.00 0.00 33 1013.6
20260509134516 71 0 2.0 3.0 0.00 0.00 0.00 33 1013.5
20260509133516 70 0 2.0 4.0 0.00 0.00 0.00 33 1013.4
20260509132516 69 0 3.0 4.0 0.00 0.00 0.00 34 1013.3
20260509131516 69 0 2.0 3.0 0.00 0.00 0.00 33 1013.3
20260509130516 68 0 3.0 4.0 0.00 0.00 0.00 33 1013.2
20260509125516 68 0 3.0 4.0 0.00 0.00 0.00 33 1013.0
20260509124516 68 0 3.0 4.0 0.00 0.00 0.00 32 1012.9
20260509123516 69 0 3.0 5.0 0.00 0.00 0.00 32 1012.9
20260509122516 68 0 3.0 3.0 0.00 0.00 0.00 32 1012.8
20260509121517 69 0 2.0 5.0 0.00 0.00 0.00 31 1012.8
20260509120516 69 0 3.0 4.0 0.00 0.00 0.00 32 1012.7
20260509115516 69 0 2.0 4.0 0.00 0.00 0.00 31 1012.6
20260509114516 69 0 2.0 3.0 0.00 0.00 0.00 31 1012.7
20260509113516 69 0 1.0 3.0 0.00 0.00 0.00 31 1012.7
20260509112516 70 0 1.0 3.0 0.00 0.00 0.00 30 1012.6
20260509111516 70 23 1.0 3.0 0.00 0.00 0.00 30 1012.5
20260509110516 70 23 2.0 3.0 0.00 0.00 0.00 29 1012.5
20260509105516 70 45 1.0 2.0 0.00 0.00 0.00 29 1012.6
20260509104516 70 45 2.0 3.0 0.00 0.00 0.00 29 1012.5
20260509103516 70 45 2.0 3.0 0.00 0.00 0.00 29 1012.4
20260509102516 71 90 2.0 4.0 0.00 0.00 0.00 28 1012.4
20260509101516 71 68 2.0 4.0 0.00 0.00 0.00 28 1012.4
20260509100516 72 68 1.0 3.0 0.00 0.00 0.00 27 1012.5
20260509095516 72 90 1.0 3.0 0.00 0.00 0.00 26 1012.4
20260509094516 73 90 2.0 3.0 0.00 0.00 0.00 25 1012.4
20260509093516 74 68 2.0 4.0 0.00 0.00 0.00 24 1012.4
20260509092516 74 90 2.0 5.0 0.00 0.00 0.00 24 1012.4
20260509091516 75 90 2.0 4.0 0.00 0.00 0.00 24 1012.5
20260509090516 76 68 1.0 2.0 0.00 0.00 0.00 24 1012.4
20260509085516 78 270 1.0 6.0 0.00 0.00 0.00 22 1012.3
20260509084516 78 270 3.0 6.0 0.00 0.00 0.00 21 1012.3
20260509083516 78 270 3.0 8.0 0.00 0.00 0.00 21 1012.3
20260509082516 78 270 4.0 8.0 0.00 0.00 0.00 21 1012.3
20260509081516 78 270 3.0 7.0 0.00 0.00 0.00 21 1012.3
20260509080516 78 270 4.0 9.0 0.00 0.00 0.00 21 1012.3
20260509075516 79 248 3.0 7.0 0.00 0.00 0.00 20 1012.3
20260509074516 79 270 3.0 6.0 0.00 0.00 0.00 20 1012.3
20260509073516 79 270 4.0 10.0 0.00 0.00 0.00 20 1012.4
20260509072516 80 270 5.0 9.0 0.00 0.00 0.00 19 1012.4
20260509071516 82 270 6.0 10.0 0.00 0.00 0.00 18 1012.5
20260509070516 84 270 5.0 10.0 0.00 0.00 0.00 17 1012.5
20260509065517 84 293 7.0 12.0 0.00 0.00 0.00 17 1012.3
20260509064516 84 293 4.0 10.0 0.00 0.00 0.00 17 1012.3
20260509063517 84 293 3.0 7.0 0.00 0.00 0.00 16 1012.3
20260509062517 85 293 5.0 12.0 0.00 0.00 0.00 16 1012.3
20260509061516 85 293 3.0 8.0 0.00 0.00 0.00 16 1012.3
20260509060516 85 293 5.0 9.0 0.00 0.00 0.00 16 1012.3
20260509055517 85 293 7.0 13.0 0.00 0.00 0.00 16 1012.2
20260509054517 85 293 4.0 12.0 0.00 0.00 0.00 16 1012.1
20260509053517 85 315 4.0 13.0 0.00 0.00 0.00 16 1012.1
20260509052517 85 293 3.0 8.0 0.00 0.00 0.00 16 1012.1
20260509051516 85 270 4.0 8.0 0.00 0.00 0.00 16 1012.1
20260509050516 85 315 5.0 13.0 0.00 0.00 0.00 16 1012.1
20260509045517 85 293 3.0 6.0 0.00 0.00 0.00 16 1012.0
20260509044517 85 293 4.0 12.0 0.00 0.00 0.00 16 1011.9
20260509043516 85 293 3.0 11.0 0.00 0.00 0.00 16 1011.8
20260509042517 85 315 3.0 10.0 0.00 0.00 0.00 16 1011.8
20260509041516 85 315 5.0 12.0 0.00 0.00 0.00 16 1011.7
20260509040516 85 293 3.0 7.0 0.00 0.00 0.00 16 1011.7
20260509035517 85 293 4.0 9.0 0.00 0.00 0.00 16 1011.6
20260509034516 85 293 4.0 9.0 0.00 0.00 0.00 16 1011.5
20260509033516 86 293 3.0 11.0 0.00 0.00 0.00 16 1011.5
20260509032517 86 270 6.0 13.0 0.00 0.00 0.00 15 1011.4
20260509031516 86 270 6.0 12.0 0.00 0.00 0.00 15 1011.3
20260509030516 86 293 6.0 15.0 0.00 0.00 0.00 15 1011.2
20260509025517 85 293 5.0 12.0 0.00 0.00 0.00 15 1011.1
20260509024516 85 270 6.0 11.0 0.00 0.00 0.00 16 1011.1
20260509023516 86 270 5.0 10.0 0.00 0.00 0.00 15 1011.0
20260509022516 86 270 5.0 10.0 0.00 0.00 0.00 15 1010.9
20260509021516 86 270 6.0 10.0 0.00 0.00 0.00 15 1010.7
20260509020516 87 270 7.0 13.0 0.00 0.00 0.00 14 1010.6
20260509015517 88 270 8.0 14.0 0.00 0.00 0.00 14 1010.5
20260509014516 88 293 7.0 11.0 0.00 0.00 0.00 14 1010.4
20260509013521 88 293 10.0 17.0 0.00 0.00 0.00 13 1010.4
20260509012516 89 293 8.0 16.0 0.00 0.00 0.00 13 1010.4
20260509011516 89 270 7.0 15.0 0.00 0.00 0.00 13 1010.4
20260509010516 89 293 10.0 17.0 0.00 0.00 0.00 12 1010.5
20260509005517 90 293 5.0 12.0 0.00 0.00 0.00 13 1010.4
20260509004516 90 270 10.0 15.0 0.00 0.00 0.00 12 1010.5
20260509003516 90 270 7.0 15.0 0.00 0.00 0.00 12 1010.5
20260509002517 90 293 7.0 12.0 0.00 0.00 0.00 12 1010.6
20260509001516 90 270 6.0 15.0 0.00 0.00 0.00 12 1010.6
20260509000516 91 293 8.0 16.0 0.00 0.00 0.00 12 1010.6
20260508235517 91 293 9.0 16.0 0.00 0.00 0.00 12 1010.6
20260508234516 92 270 6.0 13.0 0.00 0.00 0.00 12 1010.7
20260508233516 91 293 7.0 16.0 0.00 0.00 0.00 12 1010.8
20260508232516 91 270 8.0 14.0 0.00 0.00 0.00 12 1010.8
20260508231516 91 293 11.0 21.0 0.00 0.00 0.00 12 1010.9
20260508230516 92 293 4.0 12.0 0.00 0.00 0.00 13 1010.9
20260508225516 91 293 9.0 17.0 0.00 0.00 0.00 12 1010.9
20260508224516 92 270 7.0 15.0 0.00 0.00 0.00 13 1011.0
20260508223516 92 270 9.0 18.0 0.00 0.00 0.00 13 1011.1
20260508222516 91 270 9.0 16.0 0.00 0.00 0.00 13 1011.2
20260508221516 92 270 10.0 20.0 0.00 0.00 0.00 13 1011.3
20260508220516 92 270 9.0 18.0 0.00 0.00 0.00 14 1011.4
20260508215516 91 293 6.0 12.0 0.00 0.00 0.00 14 1011.5
20260508214516 91 270 7.0 15.0 0.00 0.00 0.00 15 1011.7
20260508213516 91 293 10.0 19.0 0.00 0.00 0.00 14 1011.8